Regional Weather Roundup
Issued by NWS Green Bay, WI

Home | Current Version | Previous Version | Text Only | Print | Product List | Glossary On
Versions: 1 2 3 4 5 6 7 8 9 10 11 12 13 14 15 16 17 18 19 20 21 22 23 24 25 26 27 28 29 30 31 32 33 34 35 36 37 38 39 40 41 42 43 44 45 46 47 48 49 50
000
ASUS43 KGRB 290959
RWRGRB

NORTH-CENTRAL AND NORTHEAST WISCONSIN REGIONAL WEATHER ROUNDUP
NATIONAL WEATHER SERVICE GREEN BAY WI
400 AM CST MON DEC 29 2014

WIZ005-009-010>012-018-019-291100-
NORTH CENTRAL WISCONSIN

CITY           SKY/WX    TMP DP  RH WIND       PRES   REMARKS
IRONWOOD       CLOUDY     5   1  85 W12       30.30S WCI -11
MANITOWISH WTR NOT AVBL
ARBOR VITAE    NOT AVBL
EAGLE RIVER    NOT AVBL
LAND O LAKES   NOT AVBL
RHINELANDER    MOCLDY    -6  -9  86 W5        30.29R WCI -17
PHILLIPS       NOT AVBL
ANTIGO         NOT AVBL
TOMAHAWK       NOT AVBL
MERRILL        NOT AVBL
$$

WIZ013-073-291100-
NORTHEAST WISCONSIN

CITY           SKY/WX    TMP DP  RH WIND       PRES   REMARKS
IRON MOUNTAIN    N/A     -1  -6  79 CALM      30.27R
MARINETTE      MOCLDY    10   5  79 NW3       30.34R
$$

WIZ017-030-035>037-045-291100-
CENTRAL WISCONSIN

CITY           SKY/WX    TMP DP  RH WIND       PRES   REMARKS
MEDFORD        NOT AVBL
WAUSAU         PTCLDY     2  -2  83 NW6       30.32R WCI  -9
MOSINEE        NOT AVBL
MARSHFIELD     MOCLDY     6   0  76 N8        30.34R WCI  -7
WISC RAPIDS    MOCLDY    10   4  76 N6        30.36R WCI   0
STEVENS POINT  NOT AVBL
WAUPACA        NOT AVBL
SHAWANO        PTCLDY    11   6  78 CALM      30.36R
CLINTONVILLE   MOCLDY    12   5  73 NW5       30.35R WCI   4
$$

WIZ038-039-048-051-291100-
FOX VALLEY

CITY           SKY/WX    TMP DP  RH WIND       PRES   REMARKS
NWS GREEN BAY  MOCLDY    15   7  70 N7        30.35R WCI   5
APPLETON       NOT AVBL
OSHKOSH        MOCLDY    16   6  65 N8        30.33R WCI   5
FOND DU LAC    MOCLDY    17   8  67 N10       30.32F WCI   5
$$

WIZ022-050-052-291100-
EAST CENTRAL WISCONSIN

CITY           SKY/WX    TMP DP  RH WIND       PRES   REMARKS
STURGEON BAY   PTCLDY    16   7  67 NW12      30.33S WCI   3
MANITOWOC      NOT AVBL
SHEBOYGAN      MOCLDY    17   9  70 N7        30.32S WCI   8
$$

LMZ563-521-522-541>543-291100-
LAKESHORE

STATION/POSITION TIME  TEMP    WIND        PRES    VSBY  WAVE
                       AIR SEA DIR/SP/G                  HT/PER
                 (UTC) (F)     (DEG/KT/KT) (MB)    (MI)  (FT/S)
SHEBOYGAN LKSHOR 0900   20 36  340/ 11/ 14 1028.2R
KEWAUNEE LKSHORE 0900   16     320/  3/  7 1026.0F
NORTHPORT PIER   0900   18     320/ 14/ 20 1026.1F
CHAMBERS ISLAND  0900   15     300/  6/  9 1026.8S
MENOMINEE LKSHOR 0900   12     260/  7/ 11 1027.9R
$$



USA.gov is the U.S. government's official web portal to all federal, state and local government web resources and services.